User: anonymous   Login
Location: West Cummington
(42.4920°N, 72.9680°W)
Time: 00:20:23
(UTC-05:00)
Language:

Cosmos 841 Rocket - Orbit

View from above orbital plane
View from above orbital plane
View from above satellite
View from above satellite

Ground track
Ground track

The orbit data is extracted from the following two-line orbital elements,

1 09023U 76069B   15057.83788812  .00000242  00000-0  86297-4 0  9999
2 09023 074.0429 209.2972 0018410 225.1521 134.8139 14.39318760 23764
Epoch (UTC): 26 February 2015 20:06:33
Eccentricity: 0.0018410
inclination: 74.0429°
perigee height: 747 km
apogee height: 774 km
right ascension of ascending node: 209.2972°
argument of perigee: 225.1521°
revolutions per day: 14.39318760
mean anomaly at epoch: 134.8139°
orbit number at epoch: 2376

The dashed part of the orbit path shows where the satellite is in the earth's shadow,  

DLR